Volver al catálogo

COSMOS 1275 DEB

ActivoPO
NORAD 42095·DEBRIS·🇷🇺 Russia

Lanzado Jun 4, 1981 desde Plesetsk Cosmodrome

Loading…

Próximos Pases (próximas 24 horas)

TLE

ActualizadoSource: Space-Track

Época: Sep 13, 2026, 08:01 UTC

1 42095U 81053PF  26256.33434353  .00000954  00000-0  86681-3 0  9996
2 42095  82.7511 111.7195 0129795 324.2572  34.9947 13.78929563641740

Sigue COSMOS 1275 DEB en tiempo real con AllMySat

Download on the App Store